Location: Newark
(46.1292°N, 1.0086°W)
Time: 03:16:36
(UTC+00:00)

Vanguard 3 - Pass Details

Date: 20 November 2019
Orbit: 508 x 3263 km, 33.3° (Epoch: 10 December)

Event Time Altitude Azimuth Distance (km) Brightness Sun altitude
Rises 20:01:15 0° 277° (W) 6,774 12.8 -36.7°
Reaches altitude 10° 20:08:12 10° 262° (W) 5,288 11.9 -37.9°
Maximum altitude 20:16:31 18° 227° (SW) 3,934 10.8 -39.3°
Drops below altitude 10° 20:22:53 10° 190° (S) 3,854 10.5 -40.4°
Enters shadow 20:23:06 10° 189° (S) 3,873 10.5 -40.4°
Sets 20:26:48 0° 171° (S) 4,370 - -41.0°
